This is the latest recevied weather packets stored in our database for station/object JR5YHL-13. If no packets are shown the sender has not sent any weather packets the latest 10 day(s).
| Time | Temp. | Humidity | Pressure | Rain* | Wind** | Luminosity | Snow |
|---|---|---|---|---|---|---|---|
| 1778117598 | 28.33° C | 48% | 1012.9 hPa | 0 mm | - | - | - |
| 1778117000 | 28.89° C | 47% | 1012.8 hPa | 0 mm | - | - | - |
| 1778116402 | 30° C | 45% | 1012.8 hPa | 0 mm | - | - | - |
| 1778115804 | 28.89° C | 47% | 1013 hPa | 0 mm | - | - | - |
| 1778115207 | 28.89° C | 46% | 1013 hPa | 0 mm | - | - | - |
| 1778114609 | 28.33° C | 48% | 1013.2 hPa | 0 mm | - | - | - |
| 1778114011 | 27.78° C | 44% | 1013.2 hPa | 0 mm | - | - | - |
| 1778113413 | 27.22° C | 44% | 1013.4 hPa | 0 mm | - | - | - |
| 1778112816 | 26.67° C | 43% | 1013.7 hPa | 0 mm | - | - | - |
| 1778112218 | 25.56° C | 45% | 1013.8 hPa | 0 mm | - | - | - |
| 1778111620 | 25° C | 57% | 1014 hPa | 0 mm | - | - | - |
| 1778111022 | 23.89° C | 61% | 1014.2 hPa | 0 mm | - | - | - |
| 1778110424 | 22.78° C | 66% | 1014.6 hPa | 0 mm | - | - | - |
| 1778109827 | 22.22° C | 71% | 1014.5 hPa | 0 mm | - | - | - |
| 1778109229 | 20.56° C | 79% | 1014.7 hPa | 0 mm | - | - | - |
| 1778108631 | 20° C | 82% | 1015 hPa | 0 mm | - | - | - |
| 1778108034 | 19.44° C | 84% | 1015.2 hPa | 0 mm | - | - | - |
| 1778107436 | 18.89° C | 87% | 1015.2 hPa | 0 mm | - | - | - |
| 1778106838 | 18.89° C | 88% | 1015.2 hPa | 0 mm | - | - | - |
| 1778106241 | 18.33° C | 90% | 1015.3 hPa | 0 mm | - | - | - |
| 1778105643 | 18.33° C | 91% | 1015.2 hPa | 0 mm | - | - | - |
| 1778105045 | 18.33° C | 95% | 1015.3 hPa | 0 mm | - | - | - |
| 1778104448 | 17.78° C | 98% | 1015.4 hPa | 0 mm | - | - | - |
| 1778103850 | 17.22° C | 99% | 1015.3 hPa | 0 mm | - | - | - |
| 1778103252 | 16.67° C | 99% | 1015.1 hPa | 0 mm | - | - | - |
* Rain latest hour (hover to see other rain measurements)
** Current wind speed in m/s (hover to see current wind gust speed)